Williston, ND

5:07 PM CST on December 06, 2016 (GMT -0600)
Sloulin International

Weather History for KISN - April, 2014

Change the Weather History Date:

Wednesday, April 2, 2014

  Actual Average Record
Temperature  
Mean Temperature 24 °F 38 °F  
Max Temperature 35 °F 50 °F 78 °F (1991)
Min Temperature 13 °F 25 °F -15 °F (1975)
Degree Days  
Heating Degree Days 41 27  
Month to date heating degree days 85 55  
Since 1 July heating degree days 8237 7930  
Cooling Degree Days 0 0  
Month to date cooling degree days 0 0  
Year to date cooling degree days 0 0  
Moisture  
Dew Point 18 °F    
Average Humidity 72    
Maximum Humidity 92    
Minimum Humidity 51    
Precipitation  
Precipitation 0.12 in 0.03 in 0.46 in (1963)
Month to date precipitation 0.12 0.05  
Year to date precipitation 0.88 1.74  
Sea Level Pressure  
Sea Level Pressure 30.04 in    
Wind  
Wind Speed 8 mph (ESE)    
Max Wind Speed 17 mph    
Max Gust Speed 22 mph    
Visibility 6 miles    
Events Snow    
T = Trace of Precipitation, MM = Missing Value Source: NWS Daily Summary

Daily Weather History Graph

Daily Weather History Graph

Search for Another Location

Airport or City:

Trip Planner

Search our weather history database for the weather conditions in past years. The results will help you decide how hot, cold, wet, or windy it might be!

Date:

Astronomy

Apr. 02, 2014 Rise Set
Actual Time 7:30 AM CDT 8:26 PM CDT
Civil Twilight 6:58 AM CDT 8:58 PM CDT
Nautical Twilight 6:21 AM CDT 9:36 PM CDT
Astronomical Twilight 5:41 AM CDT 10:16 PM CDT
Moon 9:04 AM CDT (4/2) No Moon Set
Length of Visible Light 13h 59m
Length of Day
12h 55m
Waxing Crescent, 10% of the Moon is Illuminated
Apr 2
Waxing Crescent
Apr 7
First Quarter
Apr 15
Full
Apr 22
Last Quarter
Apr 29
New

Hourly Weather History & Observations

Time (CDT) Temp. Windchill Dew Point Humidity Pressure Visibility Wind Dir Wind Speed Gust Speed Precip Events Conditions
12:52 AM 18.0 °F 9.8 °F 5.0 °F 57% 30.17 in 10.0 mi South 5.8 mph - N/A   Clear
1:52 AM 16.0 °F - 7.0 °F 68% 30.16 in 10.0 mi Calm Calm - N/A   Clear
2:52 AM 15.1 °F 9.4 °F 8.1 °F 74% 30.15 in 10.0 mi East 3.5 mph - N/A   Clear
3:52 AM 15.1 °F - 7.0 °F 70% 30.14 in 10.0 mi Calm Calm - N/A   Clear
4:16 AM 14.0 °F - 8.1 °F 77% 30.03 in 10.0 mi Calm Calm - N/A   Mostly Cloudy
4:31 AM 14.0 °F 8.2 °F 7.0 °F 74% 30.03 in 10.0 mi NE 3.5 mph - N/A   Scattered Clouds
4:52 AM 12.9 °F 6.9 °F 7.0 °F 77% 30.13 in 10.0 mi NNE 3.5 mph - N/A   Clear
5:52 AM 15.1 °F 9.4 °F 7.0 °F 70% 30.13 in 10.0 mi NNE 3.5 mph - N/A   Mostly Cloudy
7:42 AM 18.0 °F 12.7 °F 10.0 °F 71% 30.02 in 10.0 mi East 3.5 mph - N/A   Overcast
7:52 AM 19.0 °F 11.1 °F 9.0 °F 65% 30.12 in 10.0 mi East 5.8 mph - N/A   Overcast
8:52 AM 19.9 °F 11.1 °F 10.9 °F 68% 30.11 in 10.0 mi East 6.9 mph - N/A   Overcast
9:52 AM 21.9 °F 11.0 °F 14.0 °F 72% 30.10 in 10.0 mi ESE 10.4 mph - N/A   Overcast
10:52 AM 25.0 °F 16.3 °F 15.1 °F 66% 30.10 in 10.0 mi ESE 8.1 mph - N/A   Overcast
11:52 AM 28.9 °F 18.6 °F 15.1 °F 56% 30.09 in 10.0 mi ESE 12.7 mph - N/A   Overcast
12:52 PM 33.8 °F 26.4 °F 17.6 °F 52% 29.99 in 10.0 mi SE 9.2 mph - N/A   Overcast
1:52 PM 33.1 °F 23.4 °F 19.9 °F 59% 30.06 in 10.0 mi SE 13.8 mph 20.7 mph N/A   Overcast
2:52 PM 33.1 °F 23.0 °F 19.0 °F 56% 30.06 in 10.0 mi SSE 15.0 mph - N/A   Overcast
3:31 PM 33.1 °F 23.4 °F 18.0 °F 54% 29.95 in 10.0 mi ESE 13.8 mph - N/A   Overcast
3:52 PM 32.0 °F 22.1 °F 19.0 °F 59% 30.05 in 9.0 mi SE 13.8 mph - N/A   Overcast
4:22 PM 30.0 °F 21.1 °F 23.0 °F 75% 29.96 in 1.8 mi SE 10.4 mph - 0.00 in Snow Light Snow
4:52 PM 30.2 °F 21.9 °F 24.8 °F 80% 29.96 in 2.0 mi ESE 9.2 mph - N/A Snow Light Snow
5:03 PM 28.9 °F 19.8 °F 24.1 °F 82% 29.96 in 2.0 mi ESE 10.4 mph - 0.01 in Snow Light Snow
5:14 PM 28.9 °F 20.4 °F 24.1 °F 82% 29.96 in 1.5 mi ESE 9.2 mph - 0.01 in Snow Light Snow
5:33 PM 28.9 °F 21.1 °F 25.0 °F 85% 29.96 in 0.8 mi ESE 8.1 mph - 0.01 in Snow Light Snow
5:45 PM 28.0 °F 19.3 °F 25.0 °F 88% 29.96 in 0.8 mi ESE 9.2 mph - 0.02 in Snow Light Snow
5:52 PM 28.0 °F 18.1 °F 25.0 °F 88% 30.06 in 0.8 mi ESE 11.5 mph - 0.02 in Snow Light Snow
6:09 PM 28.0 °F 17.5 °F 25.0 °F 88% 29.97 in 0.8 mi ESE 12.7 mph - 0.01 in Snow Light Snow
6:28 PM 28.0 °F 18.6 °F 24.1 °F 85% 29.97 in 0.8 mi ESE 10.4 mph - 0.02 in Snow Light Snow
6:52 PM 28.0 °F 19.3 °F 25.0 °F 88% 30.06 in 1.0 mi SE 9.2 mph - 0.03 in Snow Light Snow
6:58 PM 28.0 °F 17.5 °F 24.1 °F 85% 29.97 in 1.0 mi ESE 12.7 mph - 0.00 in Snow Light Snow
7:06 PM 27.0 °F 17.3 °F 24.1 °F 89% 29.97 in 1.2 mi ESE 10.4 mph - 0.00 in Snow Light Snow
7:19 PM 27.0 °F 16.7 °F 24.1 °F 89% 29.97 in 1.5 mi ESE 11.5 mph - 0.01 in Snow Light Snow
7:52 PM 27.0 °F 16.7 °F 23.0 °F 85% 30.07 in 1.5 mi ESE 11.5 mph - 0.01 in Snow Light Snow
8:38 PM 26.1 °F 18.4 °F 23.0 °F 88% 29.97 in 2.5 mi ESE 6.9 mph - 0.01 in Snow Light Snow
8:52 PM 26.1 °F 18.4 °F 21.9 °F 84% 30.07 in 2.0 mi SE 6.9 mph - 0.01 in Snow Light Snow
9:34 PM 25.0 °F 16.3 °F 21.9 °F 88% 29.98 in 3.0 mi ESE 8.1 mph - 0.01 in Snow Light Snow
9:52 PM 25.0 °F 17.1 °F 21.9 °F 88% 30.08 in 4.0 mi ESE 6.9 mph - 0.01 in Snow Light Snow
9:58 PM 25.0 °F 16.3 °F 21.9 °F 88% 29.98 in 4.0 mi ESE 8.1 mph - 0.00 in Snow Light Snow
10:52 PM 26.1 °F 18.4 °F 21.9 °F 84% 30.06 in 4.0 mi ESE 6.9 mph - 0.00 in Snow Light Snow
10:59 PM 26.1 °F 19.4 °F 21.9 °F 84% 29.98 in 3.0 mi ESE 5.8 mph - 0.00 in Snow Light Snow
11:05 PM 26.1 °F 20.5 °F 21.9 °F 84% 29.98 in 2.5 mi ESE 4.6 mph - 0.01 in Snow Light Snow
11:14 PM 25.0 °F 18.1 °F 21.9 °F 88% 29.98 in 1.5 mi ESE 5.8 mph - 0.01 in Snow Light Snow
11:52 PM 25.0 °F 19.3 °F 23.0 °F 92% 30.07 in 1.5 mi ESE 4.6 mph - 0.03 in Snow Light Snow